Location: Unspecified
(41.5516°N, 88.1098°W)
Time: 04:11:04
(UTC-06:00)

Hubble Space Telescope - Visible Passes

Search period start: 19 December 2014 00:00
Search period end: 29 December 2014 00:00
Orbit: 545 x 549 km, 28.5° (Epoch: 18 December)

Date Brightness Start Highest point End Pass type
(mag) Time Alt. Az. Time Alt. Az. Time Alt. Az.
19 Dec 3.4 17:14:32 10° SSW 17:16:32 13° S 17:18:33 10° SSE visible
20 Dec 3.5 17:06:47 10° SSW 17:08:39 13° S 17:10:32 10° SSE visible
21 Dec 3.6 16:59:09 10° SSW 17:00:45 12° S 17:02:21 10° SSE visible
